Weather History for KONL - September, 2013

Change the Weather History Date:

Friday, September 20, 2013

  Actual Average (KODX) Record (KODX)
Temperature  
Mean Temperature 56 °F 62 °F  
Max Temperature 69 °F 77 °F - ()
Min Temperature 44 °F 47 °F - ()
Degree Days  
Heating Degree Days 8 5  
Month to date heating degree days 51  
Since 1 July heating degree days 65  
Cooling Degree Days 0 2  
Month to date cooling degree days 71  
Year to date cooling degree days 828  
Growing Degree Days 6 (Base 50)    
Moisture  
Dew Point 40 °F    
Average Humidity 60    
Maximum Humidity 87    
Minimum Humidity 27    
Precipitation  
Precipitation 0.00 in 0.09 in - ()
Month to date precipitation 1.75  
Year to date precipitation 20.66  
Sea Level Pressure  
Sea Level Pressure 30.07 in    
Wind  
Wind Speed 9 mph (WNW)    
Max Wind Speed 17 mph    
Max Gust Speed 26 mph    
Visibility 10 miles    
Events      
T = Trace of Precipitation, MM = Missing Value Source: NWS Daily Summary

Daily Weather History Graph

Daily Weather History Graph

Search for Another Location

Airport or City:

Trip Planner

Search our weather history database for the weather conditions in past years. The results will help you decide how hot, cold, wet, or windy it might be!

Date:

Astronomy

Sep. 20, 2013 Rise Set
Actual Time 7:20 AM CDT 7:35 PM CDT
Civil Twilight 6:52 AM CDT 8:03 PM CDT
Nautical Twilight 6:19 AM CDT 8:36 PM CDT
Astronomical Twilight 5:45 AM CDT 9:09 PM CDT
Moon 8:06 PM CDT (9/20) 8:39 AM CDT (9/20)
Length of Visible Light 13h 11m
Length of Day
12h 14m
Full, 98% of the Moon is Illuminated
Sep 20
Full
Sep 26
Last Quarter
Oct 4
New
Oct 11
First Quarter
Oct 18
Full

Hourly Weather History & Observations

Time (CDT) Temp. Windchill Dew Point Humidity Pressure Visibility Wind Dir Wind Speed Gust Speed Precip Events Conditions
12:15 AM 50.4 °F - 44.2 °F 80% 30.10 in 10.0 mi WNW 9.2 mph - N/A   Clear
12:35 AM 50.5 °F - 43.3 °F 76% 30.10 in 10.0 mi WNW 9.2 mph - N/A   Clear
12:55 AM 50.9 °F - 42.8 °F 74% 30.10 in 10.0 mi WNW 10.4 mph - N/A   Clear
1:15 AM 50.0 °F - 42.8 °F 76% 30.10 in 10.0 mi WNW 8.1 mph - N/A   Clear
1:35 AM 49.5 °F - 42.6 °F 77% 30.10 in 10.0 mi WNW 10.4 mph - N/A   Clear
1:55 AM 49.1 °F - 42.3 °F 77% 30.11 in 10.0 mi West 5.8 mph - N/A   Clear
2:15 AM 47.5 °F - 42.1 °F 82% 30.11 in 10.0 mi West 5.8 mph - N/A   Clear
2:35 AM 47.3 °F - 41.9 °F 82% 30.11 in 10.0 mi West 5.8 mph - N/A   Clear
2:55 AM 46.4 °F 43.5 °F 41.5 °F 83% 30.10 in 10.0 mi West 5.8 mph - N/A   Clear
3:15 AM 46.6 °F - 41.4 °F 82% 30.09 in 10.0 mi West 6.9 mph - N/A   Clear
3:35 AM 46.6 °F - 41.0 °F 81% 30.09 in 10.0 mi West 8.1 mph - N/A   Clear
3:55 AM 46.6 °F - 41.0 °F 81% 30.09 in 10.0 mi West 9.2 mph - N/A   Clear
4:15 AM 46.8 °F - 41.0 °F 80% 30.09 in 10.0 mi West 9.2 mph - N/A   Clear
4:35 AM 46.2 °F 42.2 °F 40.6 °F 81% 30.09 in 10.0 mi West 8.1 mph - N/A   Clear
4:55 AM 46.0 °F 41.4 °F 40.5 °F 81% 30.09 in 10.0 mi West 9.2 mph - N/A   Clear
5:15 AM 46.4 °F 42.4 °F 40.6 °F 80% 30.10 in 10.0 mi West 8.1 mph - N/A   Clear
5:35 AM 45.5 °F 42.5 °F 40.3 °F 82% 30.10 in 10.0 mi West 5.8 mph - N/A   Clear
5:55 AM 44.8 °F 41.6 °F 40.3 °F 84% 30.10 in 10.0 mi West 5.8 mph - N/A   Clear
6:15 AM 45.0 °F 41.2 °F 40.3 °F 84% 30.10 in 10.0 mi West 6.9 mph - N/A   Clear
6:35 AM 45.0 °F 40.6 °F 40.3 °F 84% 30.10 in 10.0 mi West 8.1 mph - N/A   Clear
6:55 AM 45.0 °F 40.1 °F 40.1 °F 83% 30.10 in 10.0 mi West 9.2 mph - N/A   Clear
7:15 AM 45.5 °F 40.8 °F 40.1 °F 81% 30.11 in 10.0 mi West 9.2 mph - N/A   Clear
7:35 AM 45.5 °F 41.8 °F 40.1 °F 81% 30.12 in 10.0 mi West 6.9 mph - N/A   Clear
7:55 AM 45.7 °F 41.5 °F 40.3 °F 81% 30.12 in 10.0 mi West 8.1 mph - N/A   Clear
8:15 AM 47.1 °F - 40.6 °F 78% 30.13 in 10.0 mi West 6.9 mph - N/A   Clear
8:35 AM 48.9 °F - 41.2 °F 75% 30.13 in 10.0 mi West 10.4 mph - N/A   Clear
8:55 AM 50.5 °F - 41.7 °F 72% 30.13 in 10.0 mi WNW 9.2 mph - N/A   Clear
9:15 AM 52.3 °F - 41.5 °F 67% 30.14 in 10.0 mi WNW 10.4 mph 16.1 mph N/A   Clear
9:35 AM 54.0 °F - 42.1 °F 64% 30.14 in 10.0 mi WNW 11.5 mph 16.1 mph N/A   Clear
9:55 AM 55.0 °F - 42.8 °F 63% 30.14 in 10.0 mi WNW 12.7 mph 20.7 mph N/A   Clear
10:15 AM 56.7 °F - 42.8 °F 60% 30.14 in 10.0 mi NW 16.1 mph - N/A   Clear
10:35 AM 57.4 °F - 42.3 °F 57% 30.13 in 10.0 mi NW 15.0 mph - N/A   Clear
10:55 AM 58.8 °F - 41.9 °F 53% 30.13 in 10.0 mi NW 12.7 mph 24.2 mph N/A   Clear
11:15 AM 60.1 °F - 42.6 °F 53% 30.13 in 10.0 mi NW 17.3 mph 24.2 mph N/A   Clear
11:35 AM 60.8 °F - 41.7 °F 49% 30.12 in 10.0 mi WNW 16.1 mph 26.5 mph N/A   Clear
11:55 AM 61.9 °F - 41.9 °F 48% 30.12 in 10.0 mi NNW 16.1 mph 21.9 mph N/A   Clear
12:15 PM 62.1 °F - 41.4 °F 47% 30.11 in 10.0 mi NW 17.3 mph 25.3 mph N/A   Clear
12:35 PM 63.3 °F - 41.2 °F 44% 30.10 in 10.0 mi NW 16.1 mph 21.9 mph N/A   Clear
12:55 PM 64.2 °F - 40.5 °F 42% 30.10 in 10.0 mi NW 17.3 mph 24.2 mph N/A   Clear
1:15 PM 64.8 °F - 41.0 °F 42% 30.09 in 10.0 mi NNW 17.3 mph - N/A   Clear
1:35 PM 66.2 °F - 41.0 °F 40% 30.08 in 10.0 mi WNW 12.7 mph 21.9 mph N/A   Clear
1:55 PM 66.7 °F - 39.7 °F 37% 30.08 in 10.0 mi NW 16.1 mph 19.6 mph N/A   Clear
2:15 PM 66.7 °F - 39.7 °F 37% 30.07 in 10.0 mi NW 15.0 mph 21.9 mph N/A   Clear
2:35 PM 67.8 °F - 39.4 °F 35% 30.06 in 10.0 mi NW 13.8 mph - N/A   Clear
2:55 PM 67.6 °F - 37.6 °F 33% 30.05 in 10.0 mi NW 12.7 mph 20.7 mph N/A   Clear
3:15 PM 68.4 °F - 36.9 °F 31% 30.05 in 10.0 mi NW 11.5 mph - N/A   Clear
3:35 PM 68.5 °F - 36.1 °F 30% 30.04 in 10.0 mi NNW 10.4 mph 17.3 mph N/A   Clear
3:55 PM 68.9 °F - 36.9 °F 31% 30.04 in 10.0 mi NW 16.1 mph 20.7 mph N/A   Clear
4:15 PM 69.1 °F - 34.2 °F 28% 30.04 in 10.0 mi NW 15.0 mph 19.6 mph N/A   Clear
4:35 PM 69.1 °F - 35.1 °F 29% 30.03 in 10.0 mi NNW 10.4 mph 18.4 mph N/A   Clear
4:55 PM 69.6 °F - 34.3 °F 27% 30.02 in 10.0 mi WNW 10.4 mph 16.1 mph N/A   Clear
5:15 PM 69.4 °F - 34.0 °F 27% 30.01 in 10.0 mi WNW 10.4 mph 16.1 mph N/A   Clear
5:35 PM 69.1 °F - 35.2 °F 29% 30.01 in 10.0 mi NW 10.4 mph - N/A   Clear
5:55 PM 68.9 °F - 35.4 °F 29% 30.01 in 10.0 mi WNW 9.2 mph - N/A   Clear
6:15 PM 68.4 °F - 36.3 °F 31% 30.01 in 10.0 mi NNW 5.8 mph - N/A   Clear
6:35 PM 67.3 °F - 37.6 °F 34% 30.01 in 10.0 mi NNW 3.5 mph - N/A   Clear
6:55 PM 65.8 °F - 40.3 °F 39% 30.01 in 10.0 mi North 3.5 mph - N/A   Clear
7:15 PM 64.6 °F - 40.6 °F 42% 30.01 in 10.0 mi Calm Calm - N/A   Clear
7:35 PM 61.9 °F - 42.3 °F 49% 30.01 in 10.0 mi North 3.5 mph - N/A   Clear
7:55 PM 60.1 °F - 43.3 °F 54% 30.01 in 10.0 mi NE 3.5 mph - N/A   Clear
8:15 PM 59.0 °F - 42.8 °F 55% 30.01 in 10.0 mi NE 3.5 mph - N/A   Clear
8:35 PM 58.3 °F - 41.4 °F 53% 30.01 in 10.0 mi ENE 4.6 mph - N/A   Clear
8:55 PM 57.6 °F - 40.8 °F 54% 30.01 in 10.0 mi Calm Calm - N/A   Clear
9:15 PM 55.8 °F - 41.9 °F 60% 30.01 in 10.0 mi NE 4.6 mph - N/A   Clear
9:35 PM 54.5 °F - 41.4 °F 61% 30.01 in 10.0 mi ENE 4.6 mph - N/A   Clear
9:55 PM 54.5 °F - 41.9 °F 62% 30.02 in 10.0 mi East 4.6 mph - N/A   Clear
10:15 PM 55.0 °F - 41.4 °F 60% 30.02 in 10.0 mi East 3.5 mph - N/A   Clear
10:35 PM 52.0 °F - 41.4 °F 67% 30.02 in 10.0 mi Calm Calm - N/A   Clear
10:55 PM 52.9 °F - 41.0 °F 64% 30.02 in 10.0 mi Calm Calm - N/A   Clear
11:15 PM 52.0 °F - 41.5 °F 68% 30.03 in 10.0 mi Calm Calm - N/A   Clear
11:35 PM 46.6 °F - 43.0 °F 87% 30.03 in 10.0 mi South 3.5 mph - N/A   Clear
11:55 PM 45.9 °F 44.6 °F 41.2 °F 84% 30.03 in 10.0 mi SSW 3.5 mph - N/A   Clear